Starlink 11569

operational
NORAD ID: 62910 Int'l Des: 2025-027 Owner: SPXS Country: US Constellation: starlink
LEOCIRCULAR

Über Starlink 11569

Beschreibung wird geladen...

Live-Position

3D-Globus wird geladen...

Nächste Überflüge

Höhenverlauf

Altitude vs Time

uPlot chart will show altitude changes over time

Zweizeiliger Elementsatz

1 62910U 25027D 26033.84776909 .00222004 00000-0 16833-2 0 9991
2 62910 43.0002 197.5688 0002369 281.1857 78.8745 15.70902563 57677
Epoch: 2. Feb. 2026 • Age: 32 hours

Aktueller Status

Höhe 363.1 km
Geschwindigkeit 7.69 km/s
Subsatellitenpunkt -34.87°S, 54.93°W
Startdatum 8. Feb. 2025
Alter 0.9 years
Typ internet

Technische Details

Klassifizierung Payload
Masse 960.00 kg
Trockenmasse 910.00 kg
Gesamtmasse 960.00 kg
Länge 0.30 m
Durchmesser 4.10 m
Spannweite 29.00 m
Form Box + pan
Hersteller SPXS
Bus-Typ Starlink V2MD
Phasenstatus In Orbit
Besitzer/Staat SPXS/US

Große Konstellationen

Loading constellations...